Regional Weather Roundup
Issued by NWS

Home | Current Version | Previous Version | Text Only | Print | Product List | Glossary On
Versions: 1 2 3 4 5 6 7 8 9 10 11 12 13 14 15 16 17 18 19 20 21 22 23 24 25 26 27 28 29 30 31 32 33 34 35 36 37 38 39 40 41 42 43 44 45 46 47 48 49 50
199
ASUS43 KTOP 241459
RWRKS

WEATHER ROUNDUP FOR KANSAS
NATIONAL WEATHER SERVICE GOODLAND KS
1000 AM CDT SUN JUL 24 2016

NOTE:  "FAIR" INDICATES FEW OR NO CLOUDS BELOW 12,000 FEET WITH NO
SIGNIFICANT WEATHER AND/OR OBSTRUCTIONS TO VISIBILITY.

KSZ001>006-013>018-027>032-041>047-241600-
NORTHWEST KANSAS

CITY           SKY/WX    TMP DP  RH WIND       PRES   REMARKS
GOODLAND       SUNNY     78  61  55 E14       30.09R
HAYS           PTSUNNY   79  63  57 E8        29.98S
HILL CITY      CLOUDY    74  66  76 E9        30.01R
RUSSELL        CLOUDY    79  71  76 E9        29.95S
$$

KSZ061>065-074>080-084>089-241600-
SOUTHWEST KANSAS

CITY           SKY/WX    TMP DP  RH WIND       PRES   REMARKS
DODGE CITY     CLOUDY    79  65  62 SW3       30.00R
ELKHART          N/A     81  62  52 N5          N/A
GARDEN CITY    SUNNY     82  70  66 E6        30.01R
GREAT BEND     PTSUNNY   79  64  61 SE3       29.96R
LIBERAL        CLOUDY    84  64  51 N6        30.03R
$$

KSZ066>073-081>083-090>101-241600-
SOUTHEAST KANSAS

CITY           SKY/WX    TMP DP  RH WIND       PRES   REMARKS
CHANUTE        SUNNY     85  74  69 S10       29.95S
COFFEYVILLE    SUNNY     87  73  62 S9        29.96S
HUTCHINSON     CLOUDY    88  70  55 S8        29.95S
NEWTON         PTSUNNY   85  71  63 SW9       29.96F
PARSONS        SUNNY     87  74  64 S9        29.97S HX  95
WICHITA INTL   MOSUNNY   91  69  48 S10       29.94F HX  96
WICHITA JABRA  MOSUNNY   88  71  57 SW10      29.94F
WINFIELD       MOSUNNY   90  70  51 SW16      29.96S HX  95
$$

KSZ007>012-019>026-033>040-048>060-102>105-241600-
NORTHEAST KANSAS

CITY           SKY/WX    TMP DP  RH WIND       PRES   REMARKS
CONCORDIA      CLOUDY    75  71  87 SE5       29.95F
EMPORIA        PTSUNNY   85  71  63 SW7       29.94R
LAWRENCE       MOSUNNY   89  73  59 W9        29.92R HX  97
MANHATTAN      CLOUDY    78  70  76 S3        29.91R
OLATHE IND     SUNNY     88  71  57 W14       29.94S
OLATHE EXE     SUNNY     87  71  58 W9        29.94R
SALINA         CLOUDY    83  71  67 SE7       29.94S
TOPEKA BILLARD MOSUNNY   90  73  57 CALM      29.91S HX  98
TOPEKA FORBES  MOSUNNY   91  73  55 W8        29.92S HX  99
$$




USA.gov is the U.S. government's official web portal to all federal, state and local government web resources and services.